Regional Weather Roundup
Issued by NWS

Home | Current Version | Previous Version | Graphics & Text | Print | Product List | Glossary On
Versions: 1 2 3 4 5 6 7 8 9 10 11 12 13 14 15 16 17 18 19 20 21 22 23 24 25 26 27 28 29 30 31 32 33 34 35 36 37 38 39 40 41 42 43 44 45 46 47 48 49 50
000
ASUS43 KLMK 180902
RWRKY
KENTUCKY REGIONAL WEATHER ROUNDUP
NATIONAL WEATHER SERVICE LOUISVILLE KY
500 AM EDT SAT APR 18 2015

NOTE "FAIR" INDICATES FEW OR NO CLOUDS BELOW 12,000 FEET
WITH NO SIGNIFICANT WEATHER AND/OR OBSTRUCTIONS TO VISIBILITY.

KYZ001>023-026-027-061>063-070>075-181000-
WESTERN AND SOUTH CENTRAL KENTUCKY

CITY           SKY/WX    TMP DP  RH WIND       PRES   REMARKS
PADUCAH        FOG       56  55  97 CALM      29.99S VSB 1/4
HENDERSON      CLEAR     54  50  87 CALM      30.00S
OWENSBORO      CLEAR     57  57 100 CALM      30.01F FOG
HOPKINSVILLE   PTCLDY    55  55  97 NE3       29.99F FOG
BOWLING GREEN  FOG       54  52  93 CALM      30.02S VSB 1/4
GLASGOW        NOT AVBL
$$

KYZ024-025-028>034-038-045-046-053-181000-
NORTH CENTRAL KENTUCKY

CITY           SKY/WX    TMP DP  RH WIND       PRES   REMARKS
LOUISVILLE/SDF CLEAR     60  56  86 NE3       30.03S
LOUISVILLE/LOU CLEAR     55  53  93 CALM      30.03S
FORT KNOX      CLEAR     54  53  95 CALM      30.01S
$$

KYZ035>037-039>044-047>052-055>060-089>105-181000-
NORTHEAST KENTUCKY

CITY           SKY/WX    TMP DP  RH WIND       PRES   REMARKS
LEXINGTON      CLEAR     55  53  93 CALM      30.04F FOG
COVINGTON      CLEAR     54  44  69 CALM      30.04F
FRANKFORT      FOG       51  49  92 CALM      30.03S VSB 1/2
$$

KYZ054-064>069-076>088-106>120-181000-
SOUTHEAST KENTUCKY

CITY           SKY/WX    TMP DP  RH WIND       PRES   REMARKS
JACKSON        PTCLDY    59  52  77 CALM      30.05F
LONDON         CLEAR     56  50  80 CALM      30.04F
SOMERSET       NOT AVBL
MIDDLESBORO    CLOUDY    53  53 100 CALM      30.04F
MONTICELLO     FOG       52  52 100 CALM      30.05F VSB 1/4
$$



USA.gov is the U.S. government's official web portal to all federal, state and local government web resources and services.